Find Starlink 37123

NORAD ID: 68275 Int'l Des: 2026-055 Owner: SPXS Country: US Constellation: starlink operational
LEOCIRCULAR

当前视图

正在加载3D地球...

About Starlink 37123

Starlink 37123 (NORAD 68275) is a starlink constellation satellite (v2 mini) launched Mar 19, 2026 by SPXS of US. It operates in LEO, CIRCULAR orbit with a mass of 575.00 kg.

关于 Starlink 37123

正在加载描述...

即将过境

Passes for default location (London). Set your location on the main map for personalized predictions.

高度历史

Loading altitude history...

两行轨道根数

1 68275U 26055P 26168.42532368 .00013543 00000-0 41103-3 0 9990
2 68275 53.1566 214.3880 0001172 68.2734 291.8393 15.34415214 15228
Epoch: Jun 17, 2026 • Age: 25 hours

当前状态

高度 462.3 km
速度 7.64 km/s
星下点 16.47°N, 145.88°E
发射日期 Mar 19, 2026
运行时间 0.2 years
类型 internet

技术详情

分类 Payload
质量 575.00 kg
干质量 530.00 kg
总质量 575.00 kg
长度 0.30 m
直径 4.10 m
跨度 29.00 m
形状 Box + pan
制造商 SPXS
平台类型 Starlink V2MO
阶段状态 In Orbit
所有者/国家 SPXS/US

Most Searched